Cloud_Cover
34 95 100 87 100 39 90 5 49 22 4 4 5 0 53 2 0 0 0 0 0 0 0 0 4 5 90 94 6 8 5 5 5 2 0 4 11 1 0 0 0 0 0 0
100 100 92 100 99 75 100 58 27 85 1 5 5 0 71 2 0 0 0 0 0 0 0 2 5 38 98 72 68 59 39 5 18 37 58 97 51 19 0 0 0 0 2 5
92 34 98 100 100 95 43 92 92 27 5 22 4 0 5 5 5 0 0 0 0 0 0 1 3 5 39 96 96 100 100 99 46 100 87 20 13 2 0 0 4 5 5 5
96 97 100 100 100 100 93 83 15 5 74 98 10 3 0 3 3 0 0 0 0 0 0 0 0 0 13 26 54 17 88 91 62 100 36 13 5 5 5 5 5 4 5 5
93 100 100 100 100 100 100 63 5 37 100 97 11 5 0 5 0 0 3 0 0 1 5 5 2 5 5 5 47 97 100 100 96 7 5 2 0 5 5 5 5 5 50 7
100 100 100 100 100 100 100 24 42 85 96 70 6 2 1 4 0 0 5 0 2 5 43 27 5 45 64 11 5 5 40 62 87 30 6 25 29 5 3 5 1 0 0 0
100 100 100 100 100 100 100 99 100 100 99 43 2 0 5 2 2 2 4 5 5 3 0 5 5 5 2 0 5 5 27 49 7 24 58 48 5 5 5 2 3 5 2 0
100 100 100 100 100 85 100 29 80 91 10 27 4 0 5 5 1 0 0 5 5 5 0 0 0 0 0 0 0 2 3 14 8 10 48 54 12 72 33 5 5 5 5 5
100 100 100 89 94 88 100 57 59 5 5 5 0 0 0 4 0 0 0 0 5 1 0 0 0 0 0 0 5 0 0 1 5 2 5 5 52 88 99 45 52 69 78 89
100 100 100 100 96 98 88 67 50 6 42 51 1 0 0 0 0 0 0 0 5 0 0 0 0 0 0 0 0 0 6 12 0 3 3 6 89 69 70 88 97 98 99 99
100 100 100 100 100 100 95 86 47 5 5 64 6 0 0 0 0 0 0 0 0 0 0 0 0 0 0 0 0 0 5 16 5 72 81 26 12 50 88 93 98 94 11 5
98 100 100 90 100 100 100 100 98 71 71 5 5 1 0 0 0 0 0 0 0 0 0 0 0 0 0 0 0 0 0 0 28 80 5 21 51 68 29 30 57 14 5 3
5 11 66 100 100 100 100 100 97 14 5 5 17 4 0 0 0 0 0 0 0 0 0 0 0 0 0 0 0 0 1 5 5 14 63 55 88 66 97 75 5 29 5 5
66 13 22 5 5 5 45 100 100 69 52 58 2 2 0 4 5 0 0 0 0 0 0 0 0 0 0 5 5 5 5 5 32 80 77 16 18 68 71 5 41 16 5 5
99 68 21 1 1 0 1 4 4 2 28 5 3 2 4 4 0 0 0 0 0 0 0 0 1 3 5 5 5 5 48 85 85 67 6 49 88 91 56 99 56 3 5 5
87 93 61 5 5 1 0 0 0 0 5 5 5 1 5 0 0 0 0 0 0 0 0 3 5 5 5 5 8 93 98 100 82 13 76 100 91 95 91 5 5 5 2 5
96 56 55 45 5 5 5 6 4 4 0 0 2 4 0 0 0 0 0 0 0 0 0 0 0 5 5 62 100 88 55 61 68 83 87 97 100 98 6 4 5 5 2 0
98 91 67 31 89 36 3 4 5 1 0 0 2 5 0 0 0 0 0 5 5 5 4 0 25 69 100 92 87 78 97 96 86 64 100 99 29 5 0 5 3 0 0 0
88 63 71 96 54 65 99 10 4 0 4 5 5 5 5 5 5 3 2 5 5 6 53 92 100 96 100 100 100 90 72 86 80 96 30 5 5 5 5 0 0 0 0 0
100 100 100 88 84 5 84 40 5 5 6 6 39 7 5 5 5 5 5 9 19 56 84 100 100 100 100 100 94 35 29 94 79 5 5 5 5 0 0 0 0 0 0 0
100 100 100 90 75 70 80 29 75 11 50 7 9 14 12 34 25 50 86 98 100 100 100 100 100 100 94 82 100 55 100 100 93 6 5 5 0 2 2 4 0 0 0 0
100 90 100 99 95 58 100 100 81 98 27 16 13 49 47 23 75 92 99 100 100 100 100 100 98 58 96 90 92 100 100 74 6 5 0 5 5 5 5 4 0 0 0 0
99 91 100 99 91 94 88 65 32 8 20 92 100 100 100 100 100 100 100 100 100 100 100 64 99 83 97 100 100 100 51 5 4 5 5 5 5 5 0 0 0 0 0 0
100 100 100 100 100 100 100 100 100 100 100 100 100 100 100 100 100 100 100 100 99 98 100 100 100 100 80 100 89 26 5 5 5 5 5 5 5 1 0 0 0 0 0 0
100 100 100 100 100 100 100 97 100 100 100 100 100 100 100 100 99 100 97 100 100 100 100 100 96 42 38 5 5 5 5 5 5 4 4 0 0 0 0 0 0 0 0 4
84 98 100 100 100 100 100 100 100 100 100 100 100 100 67 93 98 100 98 95 100 100 100 44 12 21 5 5 5 5 3 1 4 4 1 3 0 0 0 0 0 0 5 5